JA3VQW-13 Weather Reports


time (UTC)temp
C
wind
direction
speed
KPH
gust
KPH
rain 1hr
cm
rain 24hr
cm
rain mn
cm
humidity
%
barometer
mb
20260504022631 21 193 8.0 9.7 0.00 7.19 3.28 28 996.0
20260504021132 21 191 8.0 9.7 0.00 7.19 3.28 28 996.0
20260504020617 21 195 4.8 9.7 0.00 7.19 3.28 29 996.0
20260504015632 21 91 9.7 14.5 0.00 7.19 3.28 28 996.0
20260504014132 21 275 8.0 9.7 0.00 7.19 3.28 32 996.0
20260504013617 20 198 4.8 9.7 0.00 7.19 3.28 32 996.0
20260504012632 20 291 8.0 12.9 0.00 7.19 3.28 33 996.0
20260504011132 20 253 4.8 12.9 0.00 7.19 3.28 35 996.0
20260504010616 20 234 4.8 4.8 0.00 7.19 3.28 35 996.0
20260504005631 20 193 8.0 9.7 0.00 7.19 3.28 34 996.0
20260504004131 20 212 3.2 4.8 0.00 7.19 3.28 36 996.0
20260504003617 20 241 4.8 8.0 0.00 7.19 3.28 35 996.0
20260504002630 19 251 8.0 4.8 0.00 7.19 3.28 36 996.0
20260504001132 19 282 4.8 9.7 0.00 7.19 3.28 39 996.0
20260504000617 19 274 8.0 9.7 0.00 7.19 3.28 41 996.0
20260503235632 19 249 4.8 9.7 0.00 7.19 3.28 41 996.0
20260503234131 19 154 4.8 8.0 0.00 7.19 3.28 41 996.0
20260503233616 19 184 4.8 9.7 0.00 7.19 3.28 43 995.0
20260503232631 18 222 8.0 8.0 0.00 7.19 3.28 44 995.0
20260503231131 18 196 3.2 8.0 0.00 7.19 3.28 45 996.0
20260503230616 18 180 4.8 9.7 0.00 7.19 3.28 45 996.0
20260503225631 18 244 3.2 8.0 0.00 7.19 3.28 47 996.0
20260503224132 17 152 3.2 3.2 0.00 7.19 3.28 49 995.0
20260503223617 17 180 3.2 8.0 0.00 7.19 3.28 50 995.0
20260503222632 17 180 1.6 4.8 0.00 7.19 3.28 53 995.0
20260503221131 17 255 0.0 4.8 0.00 7.19 3.28 56 995.0
20260503220616 17 210 3.2 4.8 0.00 7.19 3.28 56 995.0
20260503215630 17 264 0.0 4.8 0.00 7.19 3.28 57 995.0
20260503214130 17 180 0.0 4.8 0.00 7.19 3.28 58 994.0
20260503213617 17 193 3.2 4.8 0.00 7.19 3.28 57 994.0
20260503212630 17 226 3.2 4.8 0.00 7.19 3.28 56 994.0
20260503211130 17 212 3.2 3.2 0.00 7.19 3.28 54 994.0
20260503210617 17 220 3.2 8.0 0.00 7.19 3.28 55 994.0
20260503205631 16 196 4.8 4.8 0.00 7.19 3.28 59 994.0
20260503204132 16 169 3.2 8.0 0.00 7.19 3.28 68 994.0
20260503203617 16 213 4.8 8.0 0.00 7.19 3.28 70 994.0
20260503202631 16 207 3.2 4.8 0.00 7.19 3.28 80 994.0
20260503201131 17 163 4.8 8.0 0.10 7.19 3.28 86 993.0
20260503200616 17 198 3.2 9.7 0.10 7.19 3.28 87 993.0
20260503195631 17 168 3.2 4.8 0.10 7.19 3.28 90 993.0
20260503194131 17 151 3.2 4.8 0.30 7.19 3.28 93 993.0
20260503193617 17 183 3.2 8.0 0.53 7.19 3.28 93 993.0
20260503192630 17 210 3.2 8.0 0.74 7.19 3.28 95 993.0
20260503191129 17 165 3.2 4.8 0.74 7.09 3.17 96 993.0
20260503190617 17 215 4.8 9.7 0.74 7.09 3.17 96 993.0
20260503185629 17 205 8.0 9.7 1.17 7.09 3.17 97 993.0
20260503184131 17 230 3.2 4.8 1.40 6.86 2.97 97 993.0
20260503183616 17 226 3.2 4.8 1.37 6.63 2.74 97 993.0
20260503182630 17 232 3.2 4.8 1.47 6.45 2.54 98 993.0
20260503181131 17 288 3.2 8.0 1.80 6.35 2.44 98 993.0
20260503180616 18 249 3.2 3.2 1.91 6.35 2.44 98 992.0
20260503175631 18 180 0.0 4.8 1.91 5.89 2.01 98 992.0
20260503174130 18 214 3.2 4.8 1.47 5.46 1.57 98 992.0
20260503173616 18 189 4.8 9.7 1.27 5.26 1.37 98 992.0
20260503172630 18 181 4.8 4.8 0.97 4.95 1.07 98 992.0
20260503171130 19 149 3.2 4.8 0.53 4.52 0.64 98 992.0
20260503170615 20 203 3.2 4.8 0.43 4.42 0.53 98 991.0
20260503150617 19 270 0.0 0.0 0.00 3.91 0.00 98 991.0
20260503131130 18 135 0.0 0.0 0.20 1.45 1.45 92 993.0
20260503130617 18 135 0.0 0.0 0.10 1.37 1.37 92 993.0
20260503110616 18 135 0.0 0.0 0.23 1.07 1.07 91 995.0
20260503081133 18 135 0.0 0.0 0.10 0.10 0.10 72 996.0
20260503080618 18 135 0.0 0.0 0.10 0.10 0.10 71 996.0
20260503072632 19 135 0.0 0.0 0.00 0.00 0.00 64 996.0
20260503071132 19 135 0.0 0.0 0.00 0.00 0.00 62 996.0
20260503070617 19 135 0.0 0.0 0.00 0.00 0.00 61 996.0
20260503053617 22 135 0.0 0.0 0.00 0.00 0.00 33 997.0
20260503052632 22 135 0.0 0.0 0.00 0.00 0.00 33 997.0
20260503050619 22 135 0.0 0.0 0.00 0.00 0.00 32 997.0
20260503045632 22 135 0.0 3.2 0.00 0.00 0.00 32 997.0
20260503044131 22 142 1.6 3.2 0.00 0.00 0.00 32 997.0
20260503043618 22 185 0.0 8.0 0.00 0.00 0.00 33 997.0
20260503042632 22 228 0.0 4.8 0.00 0.00 0.00 33 997.0
20260503041132 21 135 0.0 3.2 0.00 0.00 0.00 34 997.0
20260503040618 21 135 0.0 0.0 0.00 0.00 0.00 34 998.0
20260503035632 21 135 0.0 3.2 0.00 0.00 0.00 34 998.0
20260503034131 21 135 1.6 9.7 0.00 0.00 0.00 34 998.0
20260503033617 21 135 3.2 4.8 0.00 0.00 0.00 34 999.0
20260503032632 21 135 4.8 8.0 0.00 0.00 0.00 34 999.0
20260503031131 21 180 0.0 4.8 0.00 0.00 0.00 33 999.0
20260503030617 21 270 0.0 0.0 0.00 0.00 0.00 33 999.0
20260503025632 21 270 0.0 0.0 0.00 0.00 0.00 33 1000.0
20260503024132 21 270 0.0 0.0 0.00 0.00 0.00 35 1000.0
20260503023617 21 270 0.0 0.0 0.00 0.00 0.00 35 1000.0